STARLINK-2377, 47797

Orbit data source: Space-Track

STARLINK-2377, 47797 is a payload satellite owned by SpaceX/Seattle (US) in LEO that was launched on Thu, 11 Mar 2021 UTC via an FALCON 9 launch vehicle from the Air Force Eastern Test Range (AFETR). Payload-class satellites include a variety of spacecraft equipped with specific instruments for various scientific and technological missions. These include communications satellites like Starlink; space stations such as the ISS; scientific satellites like the Hubble; Earth observation satellites from companies like Planet Labs, Umbra, and HawkEye 360; GPS; miniature CubeSats for education and research; and military/defense satellites.

Loading next visibility...
Identifier
47797, 2021-018L
Orbit
LEO
Country
Flag of USUS
Related business
Manufacturer
SpaceX/Seattle
Mission
Operational Commercial Communications
Bus & Motor
STARLINK, Unknown motor
Mass
260 kg wet, ~248 kg dry
Launch date (UTC)
2021-03-11 (5 years ago)
Launch vehicle
FALCON 9
Launch site
Air Force Eastern Test Range (AFETR)
Object type
Payload
Rocket body
Debris
Shape & HBR
Box + 1 Pan, 10.1 m
Radar Cross Section
13.562 m², Large (>1 m²)

Expand to show TLE details & history
Last TLE update: 13 hours ago

TLE from 13 hours ago
0 STARLINK-2377
1 47797U 21018L   26035.32231494 -.00000114  00000-0  11276-4 0  9998
2 47797  53.0540  46.4117 0001420  94.6782 265.4369 15.06399304271497
Epoch: 2026-02-04T07:44Z
TLE epoch observation values (Epoch: 2026-02-04T07:44:08.010Z)
Latitude
-0.00005°
Longitude
155.88773°
Altitude
548.171 km
Speed
7.589 km/s
True Right ascension
03h 05m 38s
True Declination
0° 00' 00"
Sunlit
Object was in daylight at epoch
Visualization orbit readout
Latitude
Unknown
Longitude
Unknown
Altitude
Unknown
Speed
Unknown
Apparent Right ascension
Unknown
Apparent Declination
Unknown
Sunlit
N/A
Visualization observer readout
Local Sidereal Time
23:05:59
Azimuth
Unknown
Elevation
Unknown
Doppler factor
Unknown
Orbital elements
Apogee altitude
548.468 km
Perigee altitude
546.501 km
Semi-major axis
6,925.621 km
Eccentricity
0.00014
Inclination
53.054°
RAAN
46.4117°
Arg. of periapsis
94.6782°
True anomaly
265.42068°
Mean anomaly
265.4369°
Eccentric anomaly
265.42879°
Mean motion
3.76578 °/min
Orbital period
95.6 mins
BSTAR
0.000011276
Loading maneuver chart data...
Computing Atmospheric mass density...
Loading historical data...
Loading historical data...
Loading historical data...
Loading historical data...
Loading historical data...
Loading historical data...
Loading historical data...

Documentation

Showing up to 5 results
|